Location: La Brionne
(46.1728°N, 1.7849°E)
Time: 17:16:40
(UTC+00:00)

USA 215 - Pass Details

Date: 29 October 2021
Orbit: 1099 x 1109 km, 123.0° (Epoch: 20 November)

Event Time Altitude Azimuth Distance (km) Brightness Sun altitude
Exits shadow 17:13:51 - 54° (NE) 3,509 5.3 -6.0°
Reaches altitude 10° 17:15:17 10° 56° (NE) 2,964 4.9 -6.2°
Maximum altitude 17:21:47 64° 137° (SE) 1,208 3.4 -7.3°
Drops below altitude 10° 17:28:16 10° 219° (SW) 2,958 6.3 -8.4°
Sets 17:30:47 0° 222° (SW) 3,914 7.1 -8.8°
